sat.trackr.live / text

‹ back to catalog

UNKNOWN

NORAD 81617

UNKNOWN UNKNOWN UNKNOWN

§ Identity

Operator
Country
Launch date
Launch site
Launch vehicle
Mass (kg)
RCS (m²)

External: N2YO · Heavens-Above

§ Orbital elements

Epoch: 2026-09-18T09:39:45.077184Z

Period
114.49 min
Inclination
101.2864°
Eccentricity
0.0033343
Mean motion
12.57736094 rev/d
Perigee alt
1,406.3 km
Apogee alt
1,458.3 km
Semi-major
7,810.4 km
B*
1.8968e-3
RAAN
68.9652°
Arg perigee
43.9417°
Mean anomaly
316.4302°
Rev number
58,826

§ Raw data

UNKNOWN1 81617U          26261.40260506  .00000278  00000+0  18968-2 0  99932 81617 101.2864  68.9652 0033343  43.9417 316.4302 12.57736094588269

JSON: /api/v1/satellites/81617 · /tle

For live sub-satellite position, see the globe view (requires WebGL).

§ Visibility from observer

Set your observer location to see the next 7 days of passes ≥ 10°. The values pass through the URL so the page stays shareable.

No JS? Fill the form by hand. The geolocation button needs JavaScript.